Time,TemperatureF,DewpointF,PressureIn,WindDirection,WindDirectionDegrees,WindSpeedMPH,WindSpeedGustMPH,Humidity,HourlyPrecipIn,Conditions,Clouds,dailyrainin,SoftwareType,DateUTC
2013-06-11 00:02:00,70.0,64.0,29.83,West,265,0.0,1.0,82,0.00,,,0.00,,2013-06-11 05:02:00,
2013-06-11 00:12:00,70.0,64.0,29.83,West,265,0.0,1.0,82,0.00,,,0.00,,2013-06-11 05:12:00,
2013-06-11 00:22:00,70.0,65.0,29.84,West,266,0.0,1.0,83,0.00,,,0.00,,2013-06-11 05:22:00,
2013-06-11 00:32:00,69.0,64.0,29.84,West,266,0.0,1.0,84,0.00,,,0.00,,2013-06-11 05:32:00,
2013-06-11 00:42:00,69.0,64.0,29.84,West,266,0.0,1.0,84,0.00,,,0.00,,2013-06-11 05:42:00,
2013-06-11 00:52:00,68.0,63.0,29.84,West,266,0.0,0.0,85,0.00,,,0.00,,2013-06-11 05:52:00,
2013-06-11 01:02:00,68.0,64.0,29.85,West,266,0.0,0.0,86,0.00,,,0.00,,2013-06-11 06:02:00,
2013-06-11 01:12:00,68.0,64.0,29.85,West,266,0.0,0.0,86,0.00,,,0.00,,2013-06-11 06:12:00,
2013-06-11 01:22:00,67.0,63.0,29.84,West,265,0.0,0.0,87,0.00,,,0.00,,2013-06-11 06:22:00,
2013-06-11 01:32:00,66.0,62.0,29.84,West,266,0.0,0.0,88,0.00,,,0.00,,2013-06-11 06:32:00,
2013-06-11 01:42:00,66.0,63.0,29.84,West,266,0.0,0.0,89,0.00,,,0.00,,2013-06-11 06:42:00,
2013-06-11 01:52:00,66.0,63.0,29.84,West,266,0.0,0.0,89,0.00,,,0.00,,2013-06-11 06:52:00,
2013-06-11 02:02:00,65.0,62.0,29.84,West,266,0.0,0.0,90,0.00,,,0.00,,2013-06-11 07:02:00,
2013-06-11 02:12:00,65.0,62.0,29.84,West,266,0.0,0.0,90,0.00,,,0.00,,2013-06-11 07:12:00,
2013-06-11 02:22:00,65.0,62.0,29.84,West,266,0.0,0.0,90,0.00,,,0.00,,2013-06-11 07:22:00,
2013-06-11 02:32:00,64.0,61.0,29.85,West,265,0.0,0.0,91,0.00,,,0.00,,2013-06-11 07:32:00,
2013-06-11 02:42:00,64.0,61.0,29.85,West,266,0.0,0.0,91,0.00,,,0.00,,2013-06-11 07:42:00,
2013-06-11 02:52:00,64.0,61.0,29.85,West,266,0.0,0.0,91,0.00,,,0.00,,2013-06-11 07:52:00,
2013-06-11 03:02:00,63.0,61.0,29.85,West,265,0.0,0.0,92,0.00,,,0.00,,2013-06-11 08:02:00,
2013-06-11 03:12:00,63.0,61.0,29.85,West,265,0.0,0.0,92,0.00,,,0.00,,2013-06-11 08:12:00,
2013-06-11 03:22:00,63.0,61.0,29.85,West,265,0.0,0.0,92,0.00,,,0.00,,2013-06-11 08:22:00,
2013-06-11 03:32:00,62.0,60.0,29.85,West,266,0.0,0.0,93,0.00,,,0.00,,2013-06-11 08:32:00,
2013-06-11 03:42:00,62.0,60.0,29.85,West,265,0.0,0.0,93,0.00,,,0.00,,2013-06-11 08:42:00,
2013-06-11 03:52:00,62.0,60.0,29.85,West,265,0.0,0.0,93,0.00,,,0.00,,2013-06-11 08:52:00,
2013-06-11 04:02:00,62.0,60.0,29.86,West,266,0.0,0.0,93,0.00,,,0.00,,2013-06-11 09:02:00,
2013-06-11 04:12:00,62.0,60.0,29.86,West,266,0.0,0.0,93,0.00,,,0.00,,2013-06-11 09:12:00,
2013-06-11 04:22:00,61.0,59.0,29.86,West,266,0.0,0.0,94,0.00,,,0.00,,2013-06-11 09:22:00,
2013-06-11 04:33:00,61.0,59.0,29.86,West,266,0.0,0.0,94,0.00,,,0.00,,2013-06-11 09:33:00,
2013-06-11 04:43:00,61.0,59.0,29.85,West,265,0.0,0.0,94,0.00,,,0.00,,2013-06-11 09:43:00,
2013-06-11 04:53:00,61.0,59.0,29.85,West,265,0.0,0.0,94,0.00,,,0.00,,2013-06-11 09:53:00,
2013-06-11 05:03:00,60.0,58.0,29.86,West,266,0.0,0.0,94,0.00,,,0.00,,2013-06-11 10:03:00,
2013-06-11 05:12:00,60.0,58.0,29.86,West,266,0.0,0.0,94,0.00,,,0.00,,2013-06-11 10:12:00,
2013-06-11 05:22:00,60.0,58.0,29.86,West,265,0.0,0.0,94,0.00,,,0.00,,2013-06-11 10:22:00,
2013-06-11 05:33:00,60.0,58.0,29.86,West,265,0.0,0.0,94,0.00,,,0.00,,2013-06-11 10:33:00,
2013-06-11 05:42:00,60.0,58.0,29.86,West,265,0.0,0.0,94,0.00,,,0.00,,2013-06-11 10:42:00,
2013-06-11 05:52:00,60.0,59.0,29.86,West,266,0.0,0.0,95,0.00,,,0.00,,2013-06-11 10:52:00,
2013-06-11 06:02:00,60.0,59.0,29.87,West,266,0.0,0.0,95,0.00,,,0.00,,2013-06-11 11:02:00,
2013-06-11 06:12:00,60.0,59.0,29.87,West,266,0.0,0.0,95,0.00,,,0.00,,2013-06-11 11:12:00,
2013-06-11 06:22:00,60.0,59.0,29.87,West,266,0.0,0.0,95,0.00,,,0.00,,2013-06-11 11:22:00,
2013-06-11 06:32:00,60.0,59.0,29.89,West,266,0.0,0.0,95,0.00,,,0.00,,2013-06-11 11:32:00,
2013-06-11 06:42:00,60.0,59.0,29.89,West,266,0.0,0.0,95,0.00,,,0.00,,2013-06-11 11:42:00,
2013-06-11 06:52:00,61.0,60.0,29.88,West,265,0.0,0.0,95,0.00,,,0.00,,2013-06-11 11:52:00,
2013-06-11 07:02:00,62.0,61.0,29.90,West,265,0.0,0.0,95,0.00,,,0.00,,2013-06-11 12:02:00,
2013-06-11 07:12:00,64.0,62.0,29.89,West,266,0.0,1.0,94,0.00,,,0.00,,2013-06-11 12:12:00,
2013-06-11 07:22:00,64.0,62.0,29.89,West,266,0.0,1.0,94,0.00,,,0.00,,2013-06-11 12:22:00,
2013-06-11 07:32:00,65.0,63.0,29.90,West,265,0.0,2.0,92,0.00,,,0.00,,2013-06-11 12:32:00,
2013-06-11 07:42:00,66.0,62.0,29.90,SSW,213,1.0,2.0,88,0.00,,,0.00,,2013-06-11 12:42:00,
2013-06-11 07:52:00,66.0,62.0,29.90,SSW,213,1.0,2.0,88,0.00,,,0.00,,2013-06-11 12:52:00,
2013-06-11 08:02:00,67.0,62.0,29.90,WSW,257,0.0,4.0,84,0.00,,,0.00,,2013-06-11 13:02:00,
2013-06-11 08:12:00,67.0,62.0,29.90,WSW,257,0.0,4.0,84,0.00,,,0.00,,2013-06-11 13:12:00,
2013-06-11 08:22:00,69.0,63.0,29.90,NW,306,0.0,5.0,81,0.00,,,0.00,,2013-06-11 13:22:00,
2013-06-11 08:32:00,70.0,63.0,29.90,West,281,0.0,4.0,79,0.00,,,0.00,,2013-06-11 13:32:00,
2013-06-11 08:42:00,70.0,63.0,29.90,West,281,0.0,4.0,79,0.00,,,0.00,,2013-06-11 13:42:00,
2013-06-11 08:52:00,71.0,63.0,29.91,WNW,295,2.0,5.0,77,0.00,,,0.00,,2013-06-11 13:52:00,
2013-06-11 09:02:00,71.0,63.0,29.90,SW,233,0.0,7.0,76,0.00,,,0.00,,2013-06-11 14:02:00,
2013-06-11 09:12:00,71.0,63.0,29.90,SW,233,0.0,7.0,76,0.00,,,0.00,,2013-06-11 14:12:00,
2013-06-11 09:22:00,73.0,64.0,29.90,WSW,257,1.0,5.0,74,0.00,,,0.00,,2013-06-11 14:22:00,
2013-06-11 09:32:00,74.0,64.0,29.89,WNW,292,1.0,6.0,71,0.00,,,0.00,,2013-06-11 14:32:00,
2013-06-11 09:42:00,74.0,64.0,29.89,WNW,292,1.0,6.0,71,0.00,,,0.00,,2013-06-11 14:42:00,
2013-06-11 09:53:00,74.0,64.0,29.88,West,277,0.0,8.0,70,0.00,,,0.00,,2013-06-11 14:53:00,
2013-06-11 10:02:00,75.0,64.0,29.88,WSW,251,2.0,5.0,68,0.00,,,0.00,,2013-06-11 15:02:00,
2013-06-11 10:12:00,75.0,64.0,29.88,WNW,285,3.0,6.0,69,0.00,,,0.00,,2013-06-11 15:12:00,
2013-06-11 10:22:00,75.0,64.0,29.88,WNW,285,3.0,6.0,69,0.00,,,0.00,,2013-06-11 15:22:00,
2013-06-11 10:33:00,75.0,63.0,29.88,WSW,246,1.0,6.0,67,0.00,,,0.00,,2013-06-11 15:33:00,
2013-06-11 10:42:00,75.0,63.0,29.88,WSW,246,1.0,6.0,67,0.00,,,0.00,,2013-06-11 15:42:00,
2013-06-11 10:53:00,76.0,63.0,29.88,SW,233,1.0,5.0,64,0.00,,,0.00,,2013-06-11 15:53:00,
2013-06-11 11:02:00,76.0,63.0,29.88,SW,227,0.0,4.0,65,0.00,,,0.00,,2013-06-11 16:02:00,
2013-06-11 11:12:00,76.0,63.0,29.88,SW,227,0.0,4.0,65,0.00,,,0.00,,2013-06-11 16:12:00,
2013-06-11 11:22:00,77.0,64.0,29.89,NNW,333,1.0,6.0,64,0.00,,,0.00,,2013-06-11 16:22:00,
2013-06-11 11:32:00,76.0,65.0,29.88,SW,225,0.0,6.0,68,0.00,,,0.00,,2013-06-11 16:32:00,
2013-06-11 11:42:00,77.0,64.0,29.88,SSW,206,2.0,7.0,65,0.00,,,0.00,,2013-06-11 16:42:00,
2013-06-11 11:52:00,77.0,64.0,29.88,SSW,206,2.0,7.0,65,0.00,,,0.00,,2013-06-11 16:52:00,
2013-06-11 12:02:00,78.0,66.0,29.87,South,169,1.0,9.0,66,0.00,,,0.00,,2013-06-11 17:02:00,
2013-06-11 12:12:00,78.0,66.0,29.87,South,169,1.0,9.0,66,0.00,,,0.00,,2013-06-11 17:12:00,
2013-06-11 12:22:00,78.0,64.0,29.87,SSW,195,2.0,7.0,63,0.00,,,0.00,,2013-06-11 17:22:00,
2013-06-11 12:32:00,78.0,64.0,29.87,SSW,196,4.0,7.0,62,0.00,,,0.00,,2013-06-11 17:32:00,
2013-06-11 12:43:00,77.0,64.0,29.86,WSW,248,1.0,5.0,64,0.00,,,0.00,,2013-06-11 17:43:00,
2013-06-11 12:52:00,77.0,64.0,29.86,WSW,248,1.0,5.0,64,0.00,,,0.00,,2013-06-11 17:52:00,
2013-06-11 13:02:00,78.0,64.0,29.86,SW,234,1.0,5.0,63,0.00,,,0.00,,2013-06-11 18:02:00,
2013-06-11 13:12:00,78.0,64.0,29.86,SW,234,1.0,5.0,63,0.00,,,0.00,,2013-06-11 18:12:00,
2013-06-11 13:22:00,79.0,66.0,29.83,SSW,198,1.0,6.0,64,0.00,,,0.00,,2013-06-11 18:22:00,
2013-06-11 13:32:00,78.0,64.0,29.85,SSW,202,2.0,10.0,62,0.00,,,0.00,,2013-06-11 18:32:00,
2013-06-11 13:42:00,78.0,64.0,29.85,SSW,202,2.0,10.0,62,0.00,,,0.00,,2013-06-11 18:42:00,
2013-06-11 13:52:00,78.0,63.0,29.86,South,187,2.0,9.0,61,0.00,,,0.00,,2013-06-11 18:52:00,
2013-06-11 14:02:00,80.0,65.0,29.86,West,279,1.0,9.0,61,0.00,,,0.00,,2013-06-11 19:02:00,
2013-06-11 14:12:00,80.0,65.0,29.86,West,279,1.0,9.0,61,0.00,,,0.00,,2013-06-11 19:12:00,
2013-06-11 14:22:00,79.0,64.0,29.86,West,274,5.0,10.0,60,0.00,,,0.00,,2013-06-11 19:22:00,
2013-06-11 14:32:00,79.0,65.0,29.85,WNW,299,0.0,4.0,62,0.00,,,0.00,,2013-06-11 19:32:00,
2013-06-11 14:42:00,79.0,65.0,29.85,WNW,299,0.0,4.0,62,0.00,,,0.00,,2013-06-11 19:42:00,
2013-06-11 14:52:00,78.0,63.0,29.86,SSW,196,2.0,7.0,61,0.00,,,0.00,,2013-06-11 19:52:00,
2013-06-11 15:02:00,78.0,64.0,29.85,SW,233,0.0,7.0,62,0.00,,,0.00,,2013-06-11 20:02:00,
2013-06-11 15:12:00,78.0,64.0,29.85,SW,233,0.0,7.0,62,0.00,,,0.00,,2013-06-11 20:12:00,
2013-06-11 15:22:00,78.0,64.0,29.83,SW,221,0.0,4.0,63,0.00,,,0.00,,2013-06-11 20:22:00,
2013-06-11 15:32:00,78.0,65.0,29.81,South,188,2.0,6.0,64,0.00,,,0.00,,2013-06-11 20:32:00,
2013-06-11 15:42:00,78.0,65.0,29.81,South,188,2.0,6.0,64,0.00,,,0.00,,2013-06-11 20:42:00,
2013-06-11 15:52:00,80.0,66.0,29.78,SSW,192,5.0,8.0,62,0.00,,,0.00,,2013-06-11 20:52:00,
2013-06-11 16:02:00,81.0,65.0,29.80,South,173,3.0,8.0,59,0.00,,,0.00,,2013-06-11 21:02:00,
2013-06-11 16:12:00,81.0,65.0,29.80,South,173,3.0,8.0,59,0.00,,,0.00,,2013-06-11 21:12:00,
2013-06-11 16:22:00,81.0,64.0,29.81,South,187,5.0,9.0,57,0.00,,,0.00,,2013-06-11 21:22:00,
2013-06-11 16:33:00,82.0,65.0,29.81,West,267,3.0,7.0,56,0.00,,,0.00,,2013-06-11 21:33:00,
2013-06-11 16:42:00,82.0,65.0,29.81,West,267,3.0,7.0,56,0.00,,,0.00,,2013-06-11 21:42:00,
2013-06-11 16:53:00,82.0,65.0,29.81,West,260,2.0,7.0,57,0.00,,,0.00,,2013-06-11 21:53:00,
2013-06-11 17:03:00,83.0,66.0,29.82,SSW,202,4.0,7.0,57,0.00,,,0.00,,2013-06-11 22:03:00,
2013-06-11 17:12:00,83.0,66.0,29.82,SSW,202,4.0,7.0,57,0.00,,,0.00,,2013-06-11 22:12:00,
2013-06-11 17:22:00,83.0,66.0,29.82,WNW,284,4.0,10.0,56,0.00,,,0.00,,2013-06-11 22:22:00,
2013-06-11 17:32:00,82.0,65.0,29.82,SW,222,1.0,9.0,57,0.00,,,0.00,,2013-06-11 22:32:00,
2013-06-11 17:42:00,82.0,65.0,29.82,SW,222,1.0,9.0,57,0.00,,,0.00,,2013-06-11 22:42:00,
2013-06-11 17:52:00,81.0,65.0,29.80,SW,223,1.0,6.0,59,0.00,,,0.00,,2013-06-11 22:52:00,
2013-06-11 18:02:00,81.0,66.0,29.80,West,268,1.0,8.0,60,0.00,,,0.00,,2013-06-11 23:02:00,
2013-06-11 18:12:00,81.0,66.0,29.80,West,268,1.0,8.0,60,0.00,,,0.00,,2013-06-11 23:12:00,
2013-06-11 18:22:00,82.0,66.0,29.81,SW,228,3.0,6.0,59,0.00,,,0.00,,2013-06-11 23:22:00,
2013-06-11 18:32:00,81.0,67.0,29.81,WNW,299,0.0,6.0,62,0.00,,,0.00,,2013-06-11 23:32:00,
2013-06-11 18:42:00,80.0,67.0,29.80,WSW,243,0.0,3.0,64,0.00,,,0.00,,2013-06-11 23:42:00,
2013-06-11 18:52:00,80.0,67.0,29.80,WSW,243,0.0,3.0,64,0.00,,,0.00,,2013-06-11 23:52:00,
2013-06-11 19:02:00,79.0,66.0,29.78,SE,138,1.0,2.0,64,0.00,,,0.00,,2013-06-12 00:02:00,
2013-06-11 19:12:00,79.0,66.0,29.81,WSW,257,0.0,5.0,65,0.00,,,0.00,,2013-06-12 00:12:00,
2013-06-11 19:22:00,79.0,66.0,29.81,WSW,257,0.0,5.0,65,0.00,,,0.00,,2013-06-12 00:22:00,
2013-06-11 19:32:00,79.0,67.0,29.85,West,277,1.0,6.0,66,0.00,,,0.00,,2013-06-12 00:32:00,
2013-06-11 19:42:00,79.0,67.0,29.85,West,277,1.0,6.0,66,0.00,,,0.00,,2013-06-12 00:42:00,
2013-06-11 19:52:00,78.0,67.0,29.82,NE,52,0.0,4.0,68,0.00,,,0.00,,2013-06-12 00:52:00,
2013-06-11 20:02:00,77.0,66.0,29.83,NE,44,0.0,2.0,70,0.00,,,0.00,,2013-06-12 01:02:00,
2013-06-11 20:12:00,77.0,66.0,29.83,NE,44,0.0,2.0,70,0.00,,,0.00,,2013-06-12 01:12:00,
2013-06-11 20:22:00,77.0,67.0,29.83,NE,46,0.0,2.0,71,0.00,,,0.00,,2013-06-12 01:22:00,
2013-06-11 20:32:00,76.0,67.0,29.85,NW,322,0.0,4.0,74,0.00,,,0.00,,2013-06-12 01:32:00,
2013-06-11 20:42:00,76.0,67.0,29.85,NW,322,0.0,4.0,74,0.00,,,0.00,,2013-06-12 01:42:00,
2013-06-11 20:52:00,76.0,67.0,29.83,NE,56,0.0,1.0,74,0.00,,,0.00,,2013-06-12 01:52:00,
2013-06-11 21:02:00,75.0,67.0,29.83,NE,55,0.0,1.0,76,0.00,,,0.00,,2013-06-12 02:02:00,
2013-06-11 21:12:00,75.0,67.0,29.83,NE,55,0.0,1.0,76,0.00,,,0.00,,2013-06-12 02:12:00,
2013-06-11 21:22:00,74.0,67.0,29.81,NE,55,0.0,1.0,78,0.00,,,0.00,,2013-06-12 02:22:00,
2013-06-11 21:32:00,74.0,67.0,29.83,NE,55,0.0,2.0,78,0.00,,,0.00,,2013-06-12 02:32:00,
2013-06-11 21:42:00,73.0,66.0,29.83,NE,55,0.0,1.0,80,0.00,,,0.00,,2013-06-12 02:42:00,
2013-06-11 21:52:00,73.0,66.0,29.83,NE,55,0.0,1.0,80,0.00,,,0.00,,2013-06-12 02:52:00,
2013-06-11 22:02:00,73.0,67.0,29.84,NE,55,0.0,1.0,81,0.00,,,0.00,,2013-06-12 03:02:00,
2013-06-11 22:12:00,73.0,67.0,29.85,NE,55,0.0,1.0,81,0.00,,,0.00,,2013-06-12 03:12:00,
2013-06-11 22:22:00,73.0,67.0,29.85,NE,55,0.0,1.0,81,0.00,,,0.00,,2013-06-12 03:22:00,
2013-06-11 22:32:00,73.0,67.0,29.85,NE,55,0.0,0.0,82,0.00,,,0.00,,2013-06-12 03:32:00,
2013-06-11 22:42:00,73.0,67.0,29.85,NE,55,0.0,0.0,82,0.00,,,0.00,,2013-06-12 03:42:00,
2013-06-11 22:53:00,73.0,67.0,29.84,NE,55,0.0,1.0,82,0.00,,,0.00,,2013-06-12 03:53:00,
2013-06-11 23:03:00,72.0,67.0,29.83,NE,55,0.0,1.0,83,0.00,,,0.00,,2013-06-12 04:03:00,
2013-06-11 23:13:00,72.0,67.0,29.83,NE,55,0.0,1.0,83,0.00,,,0.00,,2013-06-12 04:13:00,
2013-06-11 23:23:00,72.0,66.0,29.84,NE,55,0.0,2.0,82,0.00,,,0.00,,2013-06-12 04:23:00,
2013-06-11 23:33:00,72.0,66.0,29.81,NE,55,1.0,2.0,81,0.00,,,0.00,,2013-06-12 04:33:00,
2013-06-11 23:42:00,72.0,66.0,29.82,NE,55,0.0,1.0,82,0.00,,,0.00,,2013-06-12 04:42:00,
2013-06-11 23:52:00,72.0,66.0,29.82,NE,55,0.0,1.0,82,0.00,,,0.00,,2013-06-12 04:52:00,